This demonstration page uses our WeatherBlox Daily Observations layout. Learn more.

Left ArrowRight Arrow

39.92423, -83.80882

Hourly Observations for October 31, 2015

Temp ( °F °C ) Dew Point ( °F °C ) Humidity (%) Winds ( mph kmh ) Pressure ( in mb ) Visibility ( mi km ) Precip ( " mm )
12:56 am 00:56 Cloudy 46 7.7 39 3.8 77 77 SSW 3 6 30.18 1022 10 16 N/A
1:11 am 01:11 Cloudy 46 8 39 4 76 76 N N/A 30.18 1022 10 16 N/A
1:56 am 01:56 Cloudy 45 7.2 40 4.4 83 83 E 3 6 30.16 1021 10 16 N/A
2:56 am 02:56 Cloudy 44 6.6 40 4.4 86 86 SE 5 7 30.15 1021 10 16 N/A
3:56 am 03:56 Cloudy 43 6.1 40 4.4 89 89 ESE 5 7 30.13 1020 10 16 N/A
4:56 am 04:56 Clear 44 6.6 39 3.8 83 83 SE 6 9 30.12 1020 10 16 N/A
5:56 am 05:56 Partly Cloudy 44 6.6 39 3.8 83 83 S 6 9 30.14 1021 10 16 N/A
6:56 am 06:56 Clear 42 5.5 39 3.8 89 89 ESE 6 9 30.12 1020 10 16 N/A
7:56 am 07:56 Clear 43 6.1 38 3.3 82 82 SE 9 15 30.10 1019 10 16 N/A
8:56 am 08:56 Sunny 43 6.1 38 3.3 82 82 ESE 14 22 30.09 1019 10 16 N/A
9:56 am 09:56 Mostly Sunny 46 7.7 38 3.3 74 74 SE 15 24 30.09 1019 10 16 N/A
10:56 am 10:56 Sunny 46 7.7 38 3.3 74 74 SE 13 20 30.08 1019 10 16 N/A
11:56 am 11:56 Cloudy 47 8.3 39 3.8 74 74 SSE 12 19 30.06 1018 10 16 N/A
12:56 pm 12:56 Mostly Cloudy 49 9.4 39 3.8 68 68 SSE 12 19 30.03 1017 10 16 N/A
1:56 pm 13:56 Mostly Cloudy 51 10.5 40 4.4 66 66 SSE 10 17 30.00 1016 10 16 N/A
2:56 pm 14:56 Mostly Cloudy 54 12.2 41 5 62 62 SE 10 17 29.96 1014 10 16 N/A
3:56 pm 15:56 Cloudy 55 12.7 42 5.5 62 62 SSE 8 13 29.93 1013 10 16 N/A
4:56 pm 16:56 Cloudy 56 13.3 43 6.1 62 62 SSE 9 15 29.92 1013 10 16 N/A
5:56 pm 17:56 Mostly Cloudy 56 13.3 44 6.6 64 64 SSE 13 20 29.89 1012 10 16 N/A
6:56 pm 18:56 Partly Cloudy 56 13.3 46 7.7 69 69 S 12 19 29.87 1012 10 16 N/A
7:56 pm 19:56 Cloudy 56 13.3 46 7.7 69 69 S 7 11 29.89 1012 10 16 N/A
8:56 pm 20:56 Mostly Cloudy 56 13.3 47 8.3 72 72 S 7 11 29.87 1012 10 16 N/A
9:56 pm 21:56 Cloudy 55 12.7 47 8.3 75 75 S 10 17 29.87 1012 10 16 N/A
10:15 pm 22:15 Mostly Cloudy with Light Rain 54 12 48 9 82 82 S 10 17 29.88 1012 8 13 N/A
10:56 pm 22:56 Cloudy 54 12.2 49 9.4 83 83 S 10 17 29.87 1011 10 16 0.01 0.25

Powered by AerisWeather